{"data":{"norad_id":55411,"intl_designator":"2023-014W","name":"STARLINK-5605","alt_names":[],"object_type":"PAYLOAD","status":"ACTIVE","operator":null,"country":"US","launch_date":"2023-01-31","launch_site_code":"AFWTR","launch_vehicle":null,"mission":null,"orbit_class":"UNKNOWN","rcs_meters":null,"size_class":null,"mass_kg":null,"dimensions":null,"purposes":["comms"],"wikipedia_slug":null,"has_3d_model":false,"image_url":null,"decayed_at":null,"tle_current":{"epoch":"2026-05-24T22:46:42.768768Z","epoch_age_seconds":72816,"freshness":"FRESH","line1":"1 55411U 23014W   26144.94910612  .00000081  00000+0  14616-4 0  9995","line2":"2 55411  69.9994 232.3659 0002936 271.4187  88.6635 14.98331597183473","mean_motion":14.98331597,"eccentricity":0.0002936,"inclination_deg":69.9994,"raan_deg":232.3659,"arg_perigee_deg":271.4187,"mean_anomaly_deg":88.6635,"bstar":1.4616e-5,"rev_number":18347,"period_min":96.106896689839,"perigee_km":570.01037717523,"apogee_km":574.09152754085,"semimajor_km":6950.187952358,"source":"CELESTRAK","updated_at":"2026-05-25T13:38:17.796758Z"}}}